Location: ??????????
(54.8537°N, 38.8755°E)
Time: 10:38:11
(UTC+00:00)

A-11 Canister half - All Passes

Search period start: 07 September 2024 00:00
Search period end: 17 September 2024 00:00
Orbit: 1523 x 1684 km, 47.3° (Epoch: 07 September)

Date Brightness Start Highest point End Pass type
(mag) Time Alt. Az. Time Alt. Az. Time Alt. Az.
07 Sep - 11:41:02 10° SSE 11:46:39 17° SE 11:52:20 10° E daylight
07 Sep - 13:40:43 10° SW 13:49:28 40° SSE 13:58:29 10° E daylight
07 Sep - 15:43:54 10° WSW 15:53:23 56° S 16:03:09 10° ESE daylight
07 Sep - 17:48:10 10° W 17:57:32 48° SSW 18:07:03 10° SE visible
07 Sep - 19:53:17 10° W 20:00:55 25° SW 20:08:36 10° S visible
08 Sep - 11:19:44 10° SSE 11:25:00 16° SE 11:30:20 10° E daylight
08 Sep - 13:19:05 10° SW 13:27:45 39° SSE 13:36:41 10° E daylight
08 Sep - 15:22:10 10° WSW 15:31:38 56° S 15:41:21 10° E daylight
08 Sep - 17:26:25 10° W 17:35:47 49° SSW 17:45:20 10° SE visible
08 Sep - 19:31:27 10° W 19:39:13 26° SW 19:47:03 10° S visible
09 Sep - 10:58:27 10° SSE 11:03:21 15° SE 11:08:18 10° E daylight
09 Sep - 12:57:28 10° SSW 13:06:02 38° SSE 13:14:52 10° E daylight
09 Sep - 15:00:27 10° WSW 15:09:52 56° S 15:19:35 10° E daylight
09 Sep - 17:04:40 10° W 17:14:02 50° SSW 17:23:36 10° SE visible
09 Sep - 19:09:37 10° W 19:17:31 27° SW 19:25:29 10° SSE visible
10 Sep - 10:37:14 10° SSE 10:41:42 14° SE 10:46:13 10° E daylight
10 Sep - 12:35:51 10° SSW 12:44:19 37° SSE 12:53:03 10° E daylight
10 Sep - 14:38:44 10° WSW 14:48:07 55° S 14:57:48 10° E daylight
10 Sep - 16:42:54 10° W 16:52:16 50° SSW 17:01:52 10° SE visible
10 Sep - 18:47:48 10° W 18:55:48 29° SW 19:03:55 10° SSE visible
11 Sep - 10:16:05 10° SSE 10:20:03 13° SE 10:24:05 10° E daylight
11 Sep - 12:14:15 10° SSW 12:22:37 36° SSE 12:31:15 10° E daylight
11 Sep - 14:17:01 10° WSW 14:26:22 55° S 14:36:01 10° E daylight
11 Sep - 16:21:10 10° W 16:30:32 51° SSW 16:40:07 10° SE visible
11 Sep - 18:26:00 10° W 18:34:05 30° SW 18:42:20 10° SSE visible
12 Sep - 09:55:02 10° SE 09:58:25 12° SE 10:01:51 10° ESE daylight
12 Sep - 11:52:39 10° SSW 12:00:54 35° SSE 12:09:26 10° E daylight
12 Sep - 13:55:19 10° WSW 14:04:36 54° S 14:14:13 10° E daylight
12 Sep - 15:59:25 10° W 16:08:46 52° SSW 16:18:23 10° ESE daylight
12 Sep - 18:04:11 10° W 18:12:23 31° SW 18:20:43 10° SSE visible
13 Sep - 09:34:07 10° SE 09:36:47 11° ESE 09:39:29 10° ESE daylight
13 Sep - 11:31:03 10° SSW 11:39:13 33° SE 11:47:36 10° E daylight
13 Sep - 13:33:37 10° WSW 13:42:52 54° S 13:52:26 10° E daylight
13 Sep - 15:37:40 10° W 15:47:01 52° SSW 15:56:38 10° ESE daylight
13 Sep - 17:42:23 10° W 17:50:40 32° SW 17:59:06 10° SSE visible
13 Sep - 19:52:02 10° WSW 19:53:07 10° WSW 19:54:12 10° SW visible
14 Sep - 09:13:34 10° SE 09:15:10 10° ESE 09:16:45 10° ESE daylight
14 Sep - 11:09:29 10° SSW 11:17:31 32° SE 11:25:47 10° E daylight
14 Sep - 13:11:54 10° WSW 13:21:07 53° SSE 13:30:39 10° E daylight
14 Sep - 15:15:56 10° W 15:25:16 53° SSW 15:34:53 10° ESE daylight
14 Sep - 17:20:36 10° W 17:28:58 33° SW 17:37:29 10° SSE visible
14 Sep - 19:29:04 10° WSW 19:31:28 11° WSW 19:33:53 10° SW visible
15 Sep - 10:47:54 10° SSW 10:55:49 31° SE 11:03:57 10° E daylight
15 Sep - 12:50:13 10° WSW 12:59:23 52° SSE 13:08:51 10° E daylight
15 Sep - 14:54:11 10° W 15:03:31 54° S 15:13:08 10° ESE daylight
15 Sep - 16:58:49 10° W 17:07:15 34° SW 17:15:51 10° SSE visible
15 Sep - 19:06:38 10° WSW 19:09:50 12° SW 19:13:02 10° SW visible
16 Sep - 10:26:21 10° SSW 10:34:08 30° SE 10:42:08 10° E daylight
16 Sep - 12:28:32 10° WSW 12:37:38 52° SSE 12:47:04 10° E daylight
16 Sep - 14:32:27 10° W 14:41:46 54° S 14:51:22 10° ESE daylight
16 Sep - 16:37:02 10° W 16:45:32 35° SSW 16:54:13 10° SSE visible
16 Sep - 18:44:23 10° WSW 18:48:10 13° SW 18:51:59 10° SSW visible
